TimeCDT,TemperatureF,Dew PointF,Humidity,Sea Level PressureIn,VisibilityMPH,Wind Direction,Wind SpeedMPH,Gust SpeedMPH,PrecipitationIn,Events,Conditions,WindDirDegrees,DateUTC
12:24 AM,78.8,71.6,78,29.85,10.0,South,11.5,-,N/A,,Mostly Cloudy,170,2013-06-01 05:24:00
12:53 AM,79.0,71.1,77,29.82,10.0,SSE,10.4,-,N/A,,Mostly Cloudy,160,2013-06-01 05:53:00
1:53 AM,79.0,71.1,77,29.80,10.0,South,15.0,20.7,N/A,,Overcast,170,2013-06-01 06:53:00
2:53 AM,78.1,71.1,79,29.79,10.0,South,12.7,23.0,N/A,,Overcast,180,2013-06-01 07:53:00
3:53 AM,78.1,71.1,79,29.78,10.0,South,13.8,-,N/A,,Overcast,180,2013-06-01 08:53:00
4:16 AM,78.8,71.6,78,29.80,10.0,South,11.5,-,N/A,,Overcast,170,2013-06-01 09:16:00
4:41 AM,78.8,71.6,78,29.80,10.0,South,13.8,-,N/A,,Overcast,170,2013-06-01 09:41:00
4:53 AM,78.1,71.1,79,29.78,10.0,South,13.8,-,N/A,,Overcast,170,2013-06-01 09:53:00
5:53 AM,79.0,70.0,74,29.79,10.0,South,11.5,-,N/A,,Overcast,180,2013-06-01 10:53:00
6:53 AM,79.0,71.1,77,29.80,10.0,South,10.4,-,N/A,,Overcast,180,2013-06-01 11:53:00
7:51 AM,78.8,71.6,78,29.82,10.0,South,13.8,-,N/A,,Overcast,190,2013-06-01 12:51:00
7:53 AM,79.0,71.1,77,29.80,10.0,South,15.0,-,N/A,,Overcast,190,2013-06-01 12:53:00
8:53 AM,81.0,72.0,74,29.83,10.0,SSW,11.5,19.6,N/A,,Overcast,200,2013-06-01 13:53:00
9:53 AM,82.0,71.1,69,29.86,10.0,SSW,9.2,-,N/A,,Overcast,200,2013-06-01 14:53:00
10:50 AM,86.0,71.6,62,29.89,10.0,SSW,10.4,-,N/A,,Scattered Clouds,210,2013-06-01 15:50:00
10:53 AM,86.0,72.0,63,29.87,10.0,SSW,10.4,-,N/A,,Mostly Cloudy,210,2013-06-01 15:53:00
11:53 AM,87.1,71.1,59,29.88,10.0,South,13.8,23.0,N/A,,Mostly Cloudy,190,2013-06-01 16:53:00
12:53 PM,89.1,72.0,57,29.86,10.0,SSW,11.5,20.7,N/A,,Mostly Cloudy,210,2013-06-01 17:53:00
1:53 PM,89.1,71.1,55,29.86,10.0,SW,10.4,17.3,N/A,,Mostly Cloudy,220,2013-06-01 18:53:00
2:53 PM,91.0,71.1,52,29.83,10.0,SW,13.8,-,N/A,,Scattered Clouds,220,2013-06-01 19:53:00
3:53 PM,91.0,70.0,50,29.81,10.0,SSW,12.7,23.0,N/A,,Scattered Clouds,200,2013-06-01 20:53:00
4:53 PM,91.9,71.1,50,29.80,10.0,SSW,13.8,-,N/A,,Mostly Cloudy,210,2013-06-01 21:53:00
5:53 PM,90.0,70.0,52,29.79,10.0,SW,8.1,-,N/A,,Mostly Cloudy,230,2013-06-01 22:53:00
6:53 PM,89.1,72.0,57,29.79,10.0,WSW,5.8,-,N/A,,Overcast,240,2013-06-01 23:53:00
7:53 PM,87.1,73.9,65,29.80,10.0,Calm,Calm,-,N/A,,Overcast,0,2013-06-02 00:53:00
8:53 PM,82.0,73.0,74,29.82,10.0,North,9.2,-,N/A,,Overcast,10,2013-06-02 01:53:00
9:41 PM,78.8,73.4,83,29.86,5.0,NNE,8.1,-,0.03,Rain,Rain,20,2013-06-02 02:41:00
9:53 PM,78.1,73.9,87,29.84,9.0,NNE,5.8,-,0.04,Rain-Thunderstorm,Light Thunderstorms and Rain,30,2013-06-02 02:53:00
10:13 PM,78.8,73.4,83,29.87,9.0,North,8.1,-,0.00,,Overcast,10,2013-06-02 03:13:00
10:33 PM,77.0,73.4,89,29.87,10.0,North,10.4,-,0.00,,Overcast,10,2013-06-02 03:33:00
10:53 PM,77.0,73.0,88,29.86,7.0,North,9.2,-,0.01,Rain,Rain,360,2013-06-02 03:53:00
11:14 PM,75.2,71.6,89,29.88,2.0,North,8.1,18.4,0.23,Rain,Heavy Rain,350,2013-06-02 04:14:00
11:22 PM,75.2,71.6,89,29.89,4.0,North,6.9,-,0.25,Rain,Light Rain,350,2013-06-02 04:22:00
11:43 PM,73.4,69.8,88,29.91,10.0,North,11.5,19.6,0.25,,Overcast,360,2013-06-02 04:43:00
11:53 PM,73.9,70.0,87,29.88,10.0,North,11.5,16.1,0.25,,Overcast,10,2013-06-02 04:53:00